Temperature
2 3 3 3 3 2 2 2 2 3 4 4 4 4 4 4 3 3 2 2 2 1 1 1 0 0 0 -0 -0 -0 -0 -0 -0 -0 -0 -0 -0 -0 -0 -0 -0 -0 -0 -0
1 3 3 2 3 3 2 2 3 3 3 4 4 4 4 3 3 3 2 1 1 1 0 0 0 -0 -0 -0 -0 -0 -0 -1 -1 -1 -1 -1 -1 -1 -1 -1 -1 -1 -1 -1
2 3 2 2 2 2 2 2 3 2 3 4 3 3 3 3 2 2 1 1 1 0 0 -0 -0 -1 -1 -1 -1 -1 -1 -1 -1 -1 -1 -1 -1 -1 -1 -1 -1 -1 -2 -1
1 1 1 3 4 3 3 2 3 3 3 3 3 3 3 3 2 2 1 1 0 0 -0 -0 -1 -1 -1 -1 -1 -1 -1 -1 -1 -2 -2 -2 -2 -2 -2 -2 -2 -2 -2 -2
1 1 2 3 3 2 2 2 2 2 3 3 2 2 2 2 2 1 1 0 0 -0 -0 -1 -1 -1 -1 -1 -1 -2 -2 -2 -2 -2 -2 -2 -2 -2 -2 -3 -3 -3 -2 -2
1 1 2 3 3 3 2 1 2 2 2 2 1 -0 1 1 1 1 1 0 -0 -0 -1 -1 -1 -1 -1 -2 -2 -2 -2 -2 -2 -2 -2 -2 -3 -3 -3 -3 -3 -3 -3 -3
0 1 2 2 2 2 2 2 2 3 2 1 0 0 1 0 0 0 -0 -0 -1 -1 -1 -1 -2 -2 -2 -2 -2 -2 -2 -2 -3 -3 -3 -3 -3 -3 -3 -3 -3 -3 -3 -4
0 1 2 1 1 1 1 2 2 2 2 1 1 0 -0 -0 -0 -1 -1 -1 -1 -1 -2 -2 -2 -2 -2 -2 -2 -3 -3 -3 -3 -3 -3 -3 -4 -4 -4 -4 -4 -4 -4 -4
1 2 2 2 2 2 2 2 2 1 1 1 0 -0 -1 -1 -1 -1 -1 -1 -2 -2 -2 -2 -2 -2 -3 -2 -3 -3 -3 -3 -3 -3 -3 -4 -4 -4 -4 -4 -4 -4 -4 -4
-0 1 2 2 2 2 2 1 1 1 0 -0 -1 -1 -1 -1 -1 -2 -2 -2 -2 -2 -2 -2 -3 -3 -3 -3 -3 -3 -3 -3 -3 -4 -4 -4 -4 -4 -4 -4 -4 -4 -5 -5
-1 0 1 2 2 1 1 1 0 0 -0 -1 -1 -1 -1 -2 -2 -2 -2 -2 -2 -2 -3 -3 -3 -3 -3 -3 -3 -3 -3 -4 -4 -4 -4 -4 -4 -4 -4 -4 -5 -5 -5 -5
0 1 1 1 2 1 1 0 0 -0 -1 -1 -1 -2 -2 -2 -2 -2 -2 -2 -2 -3 -3 -3 -3 -3 -3 -4 -4 -4 -4 -4 -4 -4 -4 -5 -5 -5 -5 -5 -5 -5 -5 -5
2 2 2 1 1 1 0 -0 -1 -1 -1 -2 -2 -2 -2 -2 -2 -2 -3 -3 -3 -3 -3 -3 -4 -4 -4 -4 -4 -4 -4 -4 -5 -5 -5 -5 -5 -5 -5 -5 -5 -5 -5 -5
1 1 0 0 0 -0 -0 -1 -1 -1 -2 -2 -2 -2 -2 -3 -3 -3 -3 -3 -3 -3 -3 -4 -4 -4 -4 -4 -4 -4 -5 -5 -5 -5 -5 -5 -5 -5 -5 -5 -5 -5 -5 -5
0 0 0 -0 -1 -1 -1 -1 -2 -2 -2 -2 -2 -3 -3 -3 -3 -3 -3 -4 -4 -4 -4 -4 -4 -4 -5 -5 -5 -5 -5 -5 -5 -5 -6 -6 -6 -6 -6 -5 -5 -5 -5 -5
-0 -0 -1 -1 -1 -2 -2 -2 -2 -2 -2 -3 -3 -3 -3 -3 -3 -4 -4 -4 -4 -4 -4 -4 -5 -5 -5 -5 -5 -5 -5 -5 -6 -6 -6 -6 -6 -6 -6 -6 -6 -6 -5 -5
-1 -1 -1 -2 -2 -2 -2 -2 -2 -3 -3 -3 -3 -3 -3 -4 -4 -4 -4 -4 -4 -4 -4 -5 -5 -5 -5 -5 -5 -5 -6 -6 -6 -6 -6 -6 -6 -6 -6 -6 -6 -6 -6 -5
-1 -1 -1 -1 -2 -2 -2 -2 -3 -3 -3 -3 -3 -4 -4 -4 -4 -4 -5 -5 -5 -5 -5 -5 -5 -5 -5 -5 -6 -6 -6 -6 -6 -6 -6 -6 -6 -6 -6 -6 -6 -6 -5 -5
-1 -1 -1 -2 -2 -2 -2 -2 -3 -3 -3 -3 -4 -4 -4 -4 -4 -5 -5 -5 -5 -5 -5 -5 -5 -5 -5 -6 -6 -6 -6 -6 -6 -6 -6 -6 -6 -6 -6 -6 -6 -6 -6 -5
-1 -2 -2 -2 -2 -2 -3 -3 -3 -3 -3 -4 -4 -4 -4 -5 -5 -5 -5 -5 -5 -5 -5 -5 -5 -6 -6 -6 -6 -6 -6 -6 -6 -6 -6 -6 -6 -6 -6 -6 -6 -6 -6 -6
-2 -2 -3 -3 -3 -3 -3 -3 -3 -4 -4 -4 -4 -4 -5 -5 -5 -5 -5 -5 -5 -5 -5 -6 -6 -6 -6 -6 -6 -6 -6 -6 -6 -6 -6 -6 -6 -6 -6 -6 -6 -6 -6 -6
-2 -3 -3 -3 -3 -3 -3 -4 -4 -4 -4 -4 -4 -5 -5 -5 -5 -5 -5 -5 -6 -6 -6 -6 -6 -6 -6 -6 -6 -6 -6 -6 -6 -6 -6 -6 -6 -6 -6 -6 -6 -6 -6 -6
-3 -3 -3 -4 -3 -3 -4 -4 -4 -4 -4 -4 -5 -5 -5 -5 -5 -6 -6 -6 -6 -6 -6 -6 -6 -6 -6 -6 -6 -6 -6 -6 -6 -6 -6 -6 -6 -6 -6 -6 -6 -6 -6 -6
-3 -3 -3 -4 -4 -4 -4 -4 -4 -5 -5 -5 -5 -5 -5 -5 -6 -6 -6 -6 -6 -6 -6 -6 -6 -6 -7 -7 -6 -6 -6 -6 -6 -6 -6 -6 -6 -6 -6 -6 -6 -6 -6 -6
-3 -3 -4 -4 -4 -4 -4 -4 -5 -5 -5 -5 -5 -6 -6 -6 -6 -6 -6 -6 -6 -6 -6 -6 -7 -7 -7 -7 -7 -7 -6 -6 -7 -7 -7 -6 -6 -6 -6 -6 -6 -6 -6 -6
-3 -4 -4 -4 -4 -4 -4 -5 -5 -5 -5 -6 -6 -6 -6 -6 -6 -6 -6 -6 -6 -7 -7 -7 -7 -7 -7 -7 -7 -7 -7 -7 -7 -7 -7 -7 -6 -6 -6 -6 -6 -6 -6 -6
-4 -4 -4 -4 -4 -4 -5 -5 -5 -5 -5 -6 -6 -6 -6 -6 -6 -6 -7 -7 -7 -7 -7 -7 -7 -7 -7 -7 -7 -7 -7 -7 -7 -7 -7 -7 -7 -7 -7 -7 -6 -6 -6 -6
Wind_Speed
8 8 6 7 8 8 9 9 8 8 9 10 6 4 3 1 1 1 1 1 0 0 1 1 2 2 2 2 2 2 2 2 2 2 2 2 2 2 3 3 3 3 3 4
6 7 8 10 11 11 11 11 12 12 13 8 5 4 3 2 2 2 2 1 1 1 1 2 2 2 2 2 2 2 2 2 2 2 2 2 2 2 3 3 3 3 3 3
4 3 5 9 10 11 9 9 8 11 12 6 5 5 4 3 3 3 2 1 1 2 2 2 2 1 1 2 2 2 2 2 2 2 2 2 2 2 2 2 2 3 3 3
4 3 7 6 3 6 8 9 9 9 8 5 5 5 3 2 2 2 1 1 1 1 2 2 1 1 1 1 2 2 2 2 2 2 2 2 2 2 2 2 2 3 3 3
3 5 8 4 3 3 4 7 6 8 8 4 2 4 3 1 1 1 1 1 2 1 1 1 1 1 1 2 2 2 2 2 2 1 2 2 2 2 2 2 2 3 3 3
4 5 6 3 1 2 1 6 3 4 5 3 1 3 4 2 2 2 1 0 0 0 1 1 1 0 0 2 2 2 2 2 2 1 1 2 2 2 2 2 3 3 4 3
8 7 7 3 2 3 2 6 2 3 4 3 3 5 3 2 2 2 1 1 0 0 1 1 1 0 1 2 2 2 2 2 2 1 1 1 2 2 2 3 3 3 4 3
6 7 8 4 5 5 6 1 1 1 2 3 3 2 2 2 2 2 2 1 0 1 1 1 1 0 1 2 2 2 2 2 2 1 2 2 2 2 2 2 3 3 3 4
7 8 3 6 5 4 1 2 2 1 2 2 3 3 3 3 3 3 2 1 0 1 1 2 1 0 1 2 2 2 1 1 2 2 1 1 2 2 2 2 2 3 3 3
6 8 5 5 4 3 3 3 2 1 2 2 4 4 3 3 3 3 2 1 0 0 2 2 2 1 1 2 1 1 1 1 2 1 2 2 2 2 2 2 2 3 3 4
8 8 6 5 5 4 3 3 2 2 2 3 4 4 4 3 3 3 2 1 1 1 2 3 2 1 2 1 1 1 1 1 1 1 2 2 2 2 2 2 2 3 3 3
8 5 4 4 2 3 4 4 3 3 3 3 3 4 4 3 3 2 2 1 1 1 2 2 2 2 1 1 0 0 1 1 1 1 2 2 2 2 3 3 5 5 5 5
6 3 3 4 3 3 3 3 3 3 4 4 3 3 3 3 2 2 1 2 2 1 2 2 1 1 1 0 0 0 0 1 1 1 1 2 2 2 3 4 5 6 6 6
4 3 5 4 4 2 2 3 2 3 3 3 3 2 2 2 1 1 1 1 1 1 1 1 1 1 1 0 0 1 0 1 1 1 1 1 2 2 2 3 4 4 5 7
6 5 6 4 2 2 2 2 2 3 3 2 2 2 2 2 2 2 1 1 0 0 1 1 1 2 1 0 0 0 0 0 0 1 1 2 2 2 2 3 3 3 3 4
5 5 5 4 4 4 3 3 4 4 3 3 2 2 2 2 2 2 1 1 1 1 2 1 2 2 1 1 1 0 0 1 1 1 1 2 2 2 2 2 2 3 3 3
5 6 5 6 6 5 5 5 5 4 4 4 3 2 1 1 1 2 1 1 2 2 2 2 2 1 1 1 1 0 0 0 1 1 1 1 2 2 2 2 2 3 3 4
7 7 6 5 5 5 5 4 4 4 4 4 3 2 2 3 3 3 2 1 1 1 2 2 1 1 1 1 1 1 1 0 1 1 1 1 1 2 2 2 2 3 3 3
4 4 4 5 5 4 4 4 4 3 3 3 3 3 3 3 3 2 2 1 2 2 2 1 1 1 2 1 1 1 1 1 0 1 1 1 2 1 2 2 2 2 3 3
3 3 3 2 3 3 4 3 3 2 3 3 3 3 2 3 2 2 2 2 3 2 1 1 1 1 2 1 1 1 1 1 0 0 0 1 1 1 1 2 2 2 2 3
2 2 2 2 2 2 3 3 3 3 3 3 4 4 3 2 2 2 2 2 2 2 1 2 1 1 1 2 1 1 1 1 1 0 0 0 1 1 1 2 2 2 2 3
2 2 2 2 2 2 2 2 3 3 3 3 3 3 3 2 2 2 2 3 2 2 1 1 1 2 2 2 1 1 1 1 1 0 0 0 0 1 1 1 2 2 2 2
1 2 2 2 2 2 1 2 2 3 3 4 4 4 4 3 2 2 2 2 1 2 1 1 2 3 3 2 1 1 1 1 1 1 0 0 0 0 1 1 1 2 2 2
1 1 1 1 2 2 1 1 2 2 3 3 3 3 3 2 1 1 1 2 2 2 1 2 3 3 2 2 2 1 1 1 1 1 1 0 0 0 1 1 1 1 1 2
2 1 2 2 2 2 2 2 2 2 2 2 2 2 2 2 2 1 1 2 2 1 1 2 2 2 1 1 1 1 1 1 1 1 1 0 0 0 1 1 1 1 1 1
2 2 2 2 2 2 2 3 2 2 2 2 1 1 1 1 2 2 2 2 2 2 1 1 1 1 1 1 1 1 1 1 1 1 0 0 0 0 1 1 1 1 1 1
2 2 2 1 1 2 2 3 3 3 3 3 2 2 2 2 2 2 2 2 1 1 1 1 1 1 1 1 1 1 1 1 1 1 0 0 0 0 1 1 1 1 1 1
Wind_Direction
264 275 269 256 249 230 230 234 242 260 265 273 288 286 285 279 268 255 251 262 272 314 316 320 330 345 347 341 339 334 326 311 298 296 303 311 314 309 307 305 299 293 293 290
264 254 262 267 255 240 241 244 252 267 272 272 279 288 288 284 282 267 263 279 296 306 318 319 325 331 332 324 325 331 314 305 312 311 305 303 305 305 308 310 311 311 302 297
262 269 295 267 239 225 231 231 236 250 260 288 291 284 273 270 266 260 253 282 278 282 294 298 298 301 295 306 314 318 308 308 318 311 303 303 303 308 309 312 320 321 317 315
274 301 252 247 204 207 227 240 237 250 267 283 281 288 269 240 242 252 245 271 274 275 285 305 304 295 300 312 308 304 304 307 316 317 309 311 317 317 316 319 323 318 318 319
242 258 266 261 222 188 217 258 237 248 267 282 326 321 289 314 359 248 240 246 244 249 275 299 293 297 331 311 305 306 306 312 314 311 305 309 317 323 323 327 324 317 317 323
235 249 254 245 179 139 145 267 254 234 251 263 309 279 267 339 353 337 329 298 263 309 315 293 287 17 319 302 309 304 308 308 305 298 298 311 317 317 318 319 315 319 319 319
233 245 261 233 171 127 183 253 271 217 228 237 239 239 261 312 319 316 310 291 242 291 297 288 297 130 272 291 289 296 309 311 307 306 305 313 318 312 316 317 318 318 314 314
213 232 250 175 151 190 223 258 271 246 231 232 246 260 276 285 292 302 296 287 219 241 291 313 328 190 274 284 294 309 309 307 307 308 312 319 309 310 314 316 321 319 318 321
210 226 245 182 204 223 217 251 256 253 262 238 249 258 263 264 266 269 260 265 233 224 286 307 316 218 269 295 309 315 314 311 311 320 327 322 308 306 314 318 318 318 323 325
261 264 259 236 238 239 239 245 261 261 260 248 255 260 258 257 260 261 251 257 280 283 288 293 298 281 274 294 308 317 308 309 318 332 330 330 326 317 311 314 316 320 323 322
248 262 276 248 228 240 255 252 253 254 249 243 252 260 254 255 254 248 246 232 207 233 273 284 296 287 298 313 4 347 313 317 331 335 324 331 336 326 312 301 293 301 296 296
240 238 226 243 219 214 231 239 238 251 265 261 249 258 263 262 255 240 240 227 223 245 275 287 296 297 312 335 26 328 328 353 355 348 340 338 335 335 338 317 322 317 308 305
243 264 256 259 254 228 228 241 242 236 244 261 257 246 254 262 257 248 234 215 217 238 264 276 286 288 306 313 355 244 266 318 333 338 333 331 332 327 329 337 337 331 329 325
235 238 257 252 251 248 245 240 232 238 247 248 243 235 240 251 249 250 244 224 215 226 252 259 260 271 292 322 319 284 263 304 315 303 310 315 313 311 316 323 329 334 335 335
230 228 237 248 249 246 235 206 217 245 254 251 233 220 219 227 237 253 259 217 159 214 254 244 251 276 304 331 280 264 261 259 314 321 318 314 319 325 325 320 317 318 327 338
229 231 228 230 236 232 225 220 229 241 241 238 241 237 225 223 236 247 231 181 181 228 250 243 248 259 253 244 221 191 228 317 325 320 323 327 332 329 322 318 320 325 330 330
215 232 229 233 232 233 232 226 225 231 230 230 235 231 212 215 238 238 234 202 201 233 248 240 243 229 189 194 185 183 193 299 328 327 322 327 324 320 317 318 324 326 324 327
223 228 221 219 223 232 237 230 223 222 222 221 217 208 207 213 226 236 232 224 241 265 257 231 211 176 173 180 170 176 186 225 263 284 313 324 325 323 327 326 323 324 330 338
227 227 219 209 208 209 215 221 221 215 208 196 201 212 219 223 224 225 203 197 227 256 263 204 204 167 164 174 162 172 180 209 278 317 340 329 339 340 336 330 329 335 344 350
226 218 215 212 198 201 209 210 201 202 200 187 191 204 219 223 214 206 199 222 237 233 208 172 162 163 159 171 173 176 190 206 221 313 335 327 324 331 337 338 341 346 350 350
224 213 204 201 209 210 199 192 188 198 197 182 189 204 218 226 212 200 201 244 256 212 195 189 165 166 170 176 177 164 171 180 185 208 260 300 319 336 343 344 350 351 349 348
216 203 204 197 195 212 206 191 182 180 181 187 191 191 195 209 207 214 226 224 222 208 168 162 169 182 185 169 150 157 176 180 170 175 205 280 307 326 336 340 344 343 342 343
207 198 192 187 187 195 190 177 173 175 185 194 195 195 198 206 206 203 234 223 203 205 174 175 197 190 177 147 147 165 177 169 165 179 195 227 279 305 315 326 331 332 335 344
177 170 169 166 146 148 171 193 173 173 178 189 196 194 187 190 222 222 200 189 193 190 179 198 198 188 164 136 145 159 169 166 168 169 159 124 20 323 308 309 315 322 332 339
167 169 167 159 164 180 174 156 145 154 159 166 181 189 192 192 195 188 155 164 177 153 140 181 189 178 139 134 143 145 148 163 161 150 149 148 242 304 297 296 299 315 329 336
174 177 180 185 181 175 167 161 166 170 159 157 162 162 150 138 141 141 140 148 157 151 138 135 143 141 126 137 141 143 144 145 114 113 137 161 280 324 316 304 303 313 324 329
159 157 153 152 159 166 166 166 168 173 171 166 163 159 151 144 139 137 137 140 139 133 128 127 126 126 126 129 128 126 126 114 107 117 134 120 79 296 302 309 313 318 326 330
Height
1472 1468 1467 1467 1467 1468 1469 1466 1466 1456 1452 1448 1447 1447 1446 1446 1445 1445 1445 1445 1445 1444 1443 1442 1441 1440 1439 1437 1436 1435 1434 1433 1432 1432 1431 1430 1430 1429 1429 1428 1427 1427 1426 1425
1472 1466 1465 1464 1461 1461 1461 1460 1458 1454 1449 1444 1445 1445 1444 1443 1443 1443 1443 1443 1443 1442 1441 1440 1439 1437 1436 1435 1434 1433 1432 1431 1430 1429 1428 1428 1427 1427 1426 1425 1424 1424 1423 1422
1469 1463 1464 1461 1453 1454 1454 1451 1452 1451 1445 1441 1442 1442 1441 1441 1441 1441 1441 1441 1440 1439 1438 1437 1436 1435 1433 1432 1431 1430 1429 1428 1427 1426 1426 1425 1425 1424 1423 1422 1422 1421 1420 1419
1471 1468 1468 1449 1442 1443 1445 1445 1445 1442 1440 1440 1440 1439 1439 1438 1438 1438 1437 1437 1437 1436 1435 1434 1433 1432 1431 1430 1428 1427 1426 1425 1425 1424 1423 1422 1422 1421 1420 1419 1418 1418 1417 1416
1471 1465 1452 1444 1441 1442 1445 1443 1439 1439 1437 1437 1437 1436 1436 1436 1436 1435 1435 1434 1434 1433 1432 1431 1430 1429 1428 1427 1426 1424 1423 1423 1422 1421 1421 1420 1419 1418 1418 1417 1415 1415 1414 1413
1466 1463 1454 1442 1439 1438 1442 1442 1435 1435 1435 1435 1436 1439 1435 1434 1433 1433 1432 1432 1431 1430 1429 1428 1428 1426 1425 1424 1423 1422 1421 1421 1420 1419 1418 1417 1417 1416 1415 1414 1413 1412 1411 1410
1462 1458 1446 1439 1437 1438 1445 1439 1432 1431 1432 1433 1433 1434 1433 1431 1430 1430 1429 1429 1428 1427 1426 1426 1425 1424 1423 1422 1421 1420 1419 1418 1418 1417 1416 1416 1415 1414 1413 1412 1411 1410 1409 1408
1457 1455 1446 1435 1436 1438 1434 1430 1430 1429 1430 1430 1430 1429 1429 1428 1428 1427 1426 1426 1425 1424 1424 1423 1422 1421 1420 1419 1418 1417 1417 1416 1416 1415 1414 1414 1413 1412 1411 1410 1409 1407 1406 1405
1443 1439 1430 1429 1429 1428 1428 1428 1428 1428 1428 1427 1427 1426 1426 1425 1425 1424 1424 1423 1422 1422 1421 1421 1420 1419 1417 1417 1416 1415 1414 1414 1413 1413 1413 1412 1411 1410 1409 1408 1407 1405 1404 1403
1437 1429 1427 1427 1426 1426 1426 1426 1425 1425 1425 1425 1424 1423 1423 1422 1422 1421 1421 1420 1420 1419 1418 1418 1417 1416 1415 1414 1413 1413 1412 1412 1412 1411 1411 1410 1409 1408 1407 1406 1405 1404 1403 1401
1432 1426 1424 1422 1423 1423 1423 1422 1422 1422 1422 1421 1421 1420 1419 1419 1418 1418 1418 1417 1417 1416 1416 1415 1415 1414 1413 1412 1411 1410 1410 1410 1410 1409 1409 1408 1407 1407 1406 1405 1404 1403 1401 1400
1424 1420 1420 1418 1418 1419 1419 1419 1418 1418 1418 1418 1417 1416 1416 1415 1415 1415 1415 1414 1414 1414 1413 1413 1412 1412 1411 1410 1410 1409 1408 1408 1408 1408 1407 1407 1406 1405 1404 1403 1402 1401 1400 1399
1416 1416 1416 1415 1415 1415 1415 1415 1415 1414 1414 1414 1413 1413 1412 1412 1411 1411 1411 1411 1411 1411 1411 1410 1410 1410 1409 1409 1408 1407 1407 1407 1406 1406 1406 1405 1404 1403 1401 1401 1400 1399 1398 1397
1412 1412 1411 1411 1411 1411 1411 1411 1411 1410 1410 1410 1410 1409 1409 1409 1408 1408 1408 1408 1409 1409 1408 1408 1408 1408 1407 1407 1406 1406 1406 1406 1405 1405 1404 1404 1403 1402 1401 1399 1398 1397 1396 1395
1407 1408 1408 1407 1407 1407 1407 1407 1407 1407 1406 1406 1406 1406 1406 1406 1406 1406 1406 1406 1406 1406 1406 1406 1406 1406 1406 1405 1405 1405 1404 1404 1404 1404 1403 1403 1402 1401 1400 1398 1397 1396 1395 1393
1402 1402 1403 1403 1403 1403 1403 1403 1403 1403 1403 1403 1403 1403 1403 1403 1403 1403 1404 1404 1404 1404 1404 1404 1404 1404 1404 1403 1403 1403 1403 1403 1403 1402 1402 1401 1401 1400 1398 1397 1396 1395 1394 1392
1397 1397 1397 1398 1398 1399 1399 1399 1399 1400 1400 1400 1400 1400 1400 1400 1400 1401 1401 1401 1402 1402 1402 1402 1402 1402 1402 1402 1402 1402 1402 1402 1402 1401 1401 1400 1399 1399 1398 1397 1395 1394 1393 1392
1392 1393 1393 1393 1394 1395 1395 1396 1396 1396 1396 1396 1397 1397 1397 1398 1398 1398 1399 1399 1399 1400 1400 1400 1400 1400 1400 1400 1400 1401 1401 1401 1400 1400 1400 1399 1399 1398 1397 1396 1395 1394 1392 1391
1387 1388 1388 1389 1390 1391 1392 1392 1393 1393 1393 1394 1394 1394 1395 1395 1396 1396 1397 1397 1397 1397 1398 1398 1398 1399 1399 1399 1399 1400 1400 1400 1400 1399 1399 1398 1398 1397 1396 1395 1394 1393 1392 1391
1383 1383 1384 1385 1386 1387 1388 1389 1390 1390 1391 1391 1391 1391 1392 1393 1394 1394 1395 1395 1395 1395 1396 1396 1397 1397 1397 1398 1398 1398 1399 1399 1399 1398 1398 1398 1397 1397 1396 1395 1394 1393 1392 1391
1379 1380 1381 1382 1383 1384 1385 1386 1387 1387 1388 1388 1388 1389 1390 1390 1391 1392 1392 1393 1394 1394 1394 1395 1395 1396 1396 1397 1397 1397 1398 1398 1398 1397 1397 1397 1397 1396 1395 1395 1394 1393 1392 1391
1377 1377 1378 1379 1380 1381 1382 1383 1384 1384 1385 1385 1386 1387 1387 1388 1389 1390 1390 1391 1392 1392 1393 1393 1394 1394 1395 1396 1396 1396 1397 1397 1397 1397 1397 1396 1396 1396 1395 1395 1394 1393 1393 1392
1375 1375 1376 1377 1378 1379 1380 1381 1382 1382 1382 1383 1384 1384 1385 1386 1387 1387 1388 1389 1390 1391 1391 1392 1393 1393 1394 1394 1395 1395 1396 1396 1396 1396 1396 1396 1396 1395 1395 1395 1394 1394 1393 1392
1374 1374 1375 1375 1376 1377 1378 1379 1380 1380 1381 1381 1382 1383 1383 1384 1385 1386 1387 1387 1388 1389 1390 1391 1391 1392 1393 1393 1394 1394 1395 1395 1395 1395 1395 1395 1395 1395 1395 1394 1394 1394 1393 1393
1372 1373 1373 1374 1375 1375 1376 1377 1378 1378 1379 1379 1380 1381 1382 1383 1384 1384 1385 1386 1387 1388 1388 1389 1390 1391 1391 1392 1393 1393 1394 1394 1394 1394 1395 1395 1395 1395 1394 1394 1394 1394 1393 1393
1371 1371 1372 1373 1373 1374 1374 1375 1376 1377 1377 1378 1379 1380 1381 1382 1382 1383 1384 1385 1386 1386 1387 1388 1389 1389 1390 1391 1392 1392 1393 1393 1393 1394 1394 1394 1394 1394 1394 1394 1394 1394 1393 1393
1370 1370 1371 1371 1372 1373 1373 1373 1374 1375 1376 1377 1377 1378 1379 1380 1381 1382 1383 1384 1384 1385 1386 1387 1388 1389 1389 1390 1391 1391 1392 1392 1393 1393 1393 1394 1394 1394 1394 1394 1394 1393 1393 1393